Find Kosmos-2117

NORAD ID: 21031 Int'l Des: 1990-114 Owner: UNKS Country: SU operational
LEOCIRCULARPOLAR

Live-Position

3D-Globus wird geladen...

Über Kosmos-2117

Beschreibung wird geladen...

Nächste Überflüge

Passes for default location (London). Set your location on the main map for personalized predictions.

Höhenverlauf

Loading altitude history...

Zweizeiliger Elementsatz

1 21031U 90114D 26104.15259263 .00000014 00000-0 15861-4 0 9998
2 21031 82.5743 238.4137 0007893 205.8213 328.4048 12.65030035630175
Epoch: 14. Apr. 2026 • Age: 13 hours

Aktueller Status

Höhe 1414.6 km
Geschwindigkeit 7.15 km/s
Subsatellitenpunkt 44.66°N, 158.56°E
Startdatum 22. Dez. 1990
Alter 35.3 years
Typ other

Technische Details

Klassifizierung Payload
Masse 225.00 kg
Trockenmasse 225.00 kg
Gesamtmasse 225.00 kg
Länge 1.60 m
Durchmesser 0.80 m
Spannweite 7.00 m
Form Cyl + Ant
Hersteller NPOPM
Bus-Typ Strela-3
Phasenstatus In Orbit
Besitzer/Staat UNKS/SU

Most Searched